This demonstration page uses our WeatherBlox Daily Observations layout. Learn more.

Left ArrowRight Arrow

39.51506, -84.39828

Hourly Observations for March 6, 2018

Temp ( °F °C ) Dew Point ( °F °C ) Humidity (%) Winds ( mph kmh ) Pressure ( in mb ) Visibility ( mi km ) Precip ( " mm )
12:15 am 00:15 Cloudy with Light Rain 40 4.4 26 -3.3 58 58 E 5 7 29.91 1013 10 16.0934 N/A
12:35 am 00:35 Cloudy 40 4.4 26 -3.5 57 57 E 6 9 29.91 1013 10 16.0934 N/A
12:55 am 00:55 Cloudy 40 4.5 25 -4 54 54 ESE 3 6 29.91 1013 10 16.0934 N/A
1:15 am 01:15 Cloudy 40 4.6 24 -4.4 52 52 ESE 5 7 29.88 1012 10 16.0934 N/A
1:35 am 01:35 Cloudy 40 4.6 24 -4.6 52 52 ESE 3 6 29.88 1012 10 16.0934 N/A
1:55 am 01:55 Cloudy 40 4.6 25 -4.1 54 54 ESE 3 6 29.88 1012 10 16.0934 N/A
2:15 am 02:15 Cloudy with Light Rain 39 3.9 27 -2.7 62 62 E 3 6 29.88 1012 10 16.0934 N/A
2:35 am 02:35 Cloudy with Light Rain 38 3.4 31 -0.8 74 74 N N/A 29.85 1011 10 16.0934 N/A
2:55 am 02:55 Cloudy 38 3.4 31 -0.7 75 75 NE 3 6 29.85 1011 10 16.0934 N/A
3:15 am 03:15 Cloudy 38 3.4 31 -0.7 75 75 ENE 5 7 29.85 1011 10 16.0934 N/A
3:35 am 03:35 Cloudy 38 3.4 31 -0.7 75 75 NNE 3 6 29.85 1011 10 16.0934 N/A
3:55 am 03:55 Cloudy 38 3.6 29 -1.5 70 70 NNE 3 6 29.85 1011 10 16.0934 N/A
4:15 am 04:15 Cloudy 38 3.5 30 -1 73 73 N N/A 29.85 1011 10 16.0934 N/A
4:35 am 04:35 Cloudy 39 3.7 29 -1.5 69 69 N N/A 29.85 1011 10 16.0934 N/A
4:55 am 04:55 Cloudy 38 3.4 32 0.2 80 80 N N/A 29.85 1011 10 16.0934 N/A
5:15 am 05:15 Cloudy 38 3.6 31 -0.3 76 76 N N/A 29.85 1011 10 16.0934 N/A
5:35 am 05:35 Cloudy 38 3.5 32 -0.2 77 77 N N/A 29.85 1011 10 16.0934 N/A
5:55 am 05:55 Partly Cloudy 38 3.5 29 -1.6 70 70 N N/A 29.85 1011 10 16.0934 N/A
6:15 am 06:15 Clear 36 2.3 31 -0.5 82 82 N N/A 29.85 1011 10 16.0934 N/A
6:35 am 06:35 Clear 34 0.9 29 -1.7 83 83 N 3 6 29.88 1012 10 16.0934 N/A
6:55 am 06:55 Clear 32 undefined 28 -2 87 87 N N/A 29.88 1012 10 16.0934 N/A
7:15 am 07:15 Sunny 31 -0.6 28 -2 90 90 N N/A 29.88 1012 10 16.0934 N/A
7:35 am 07:35 Sunny 31 -0.6 28 -2.5 87 87 N N/A 29.88 1012 10 16.0934 N/A
7:55 am 07:55 Sunny 32 -0.1 29 -1.6 90 90 N N/A 29.85 1011 10 16.0934 N/A
8:15 am 08:15 Sunny 35 1.6 31 -0.4 87 87 N N/A 29.85 1011 10 16.0934 N/A
8:35 am 08:35 Sunny 40 4.4 32 undefined 73 73 SSW 5 7 29.83 1010 10 16.0934 N/A
8:55 am 08:55 Sunny 41 5.2 34 1.3 76 76 SSW 7 11 29.83 1010 10 16.0934 N/A
9:15 am 09:15 Sunny 43 5.9 36 2.4 78 78 SSW 8 13 29.83 1010 10 16.0934 N/A
9:35 am 09:35 Sunny 44 6.5 37 2.9 78 78 SSW 8 13 29.83 1010 10 16.0934 N/A
9:55 am 09:55 Sunny 45 7.2 38 3.2 76 76 SSW 9 15 29.83 1010 10 16.0934 N/A
10:15 am 10:15 Sunny 47 8.2 37 2.7 69 69 SW 12 19 29.83 1010 10 16.0934 N/A
10:35 am 10:35 Sunny 48 9.1 34 1.3 58 58 SSW 12 19 29.8 1009 10 16.0934 N/A
10:55 am 10:55 Sunny 50 9.8 31 -0.5 49 49 SW 9 15 29.8 1009 10 16.0934 N/A
11:15 am 11:15 Sunny 51 10.6 28 -2.4 40 40 SW 13 20 29.8 1009 10 16.0934 N/A
11:35 am 11:35 Sunny 52 10.9 24 -4.2 35 35 WSW 17 28 29.8 1009 10 16.0934 N/A
11:50 am 11:50 Sunny 52 11.2 26 -3.4 36 36 WSW 17 28 29.8 1009 10 16.0934 N/A
12:15 pm 12:15 Sunny 54 12 25 -3.7 33 33 WSW 16 26 29.77 1008 10 16.0934 N/A
12:35 pm 12:35 Sunny 54 12.4 26 -3.2 34 34 SW 13 20 29.77 1008 10 16.0934 N/A
12:55 pm 12:55 Sunny 55 12.7 29 -1.9 37 37 SW 20 31 29.71 1006 10 16.0934 N/A
1:15 pm 13:15 Sunny 55 12.5 29 -1.4 38 38 SW 16 26 29.74 1007 10 16.0934 N/A
1:35 pm 13:35 Partly Cloudy 56 13.1 26 -3.3 32 32 W 15 24 29.68 1005 10 16.0934 N/A
1:55 pm 13:55 Sunny 57 13.7 24 -4.4 28 28 WSW 20 31 29.68 1005 10 16.0934 N/A
2:15 pm 14:15 Sunny 57 13.8 24 -4.7 28 28 WSW 16 26 29.68 1005 10 16.0934 N/A
2:35 pm 14:35 Partly Cloudy 58 14.2 23 -5 26 26 WSW 17 28 29.65 1004 10 16.0934 N/A
2:55 pm 14:55 Mostly Cloudy 58 14.4 22 -5.7 25 25 WSW 20 31 29.65 1004 10 16.0934 N/A
3:15 pm 15:15 Mostly Cloudy 57 13.7 22 -5.4 26 26 SW 21 33 29.65 1004 10 16.0934 N/A
3:35 pm 15:35 Mostly Cloudy 55 12.8 22 -5.8 27 27 SW 12 19 29.65 1004 10 16.0934 N/A
3:55 pm 15:55 Cloudy 56 13.2 21 -6.3 25 25 SW 17 28 29.65 1004 10 16.0934 N/A
4:15 pm 16:15 Mostly Cloudy 55 12.8 19 -7.1 25 25 SSW 18 30 29.65 1004 10 16.0934 N/A
4:35 pm 16:35 Mostly Cloudy 55 12.7 18 -7.8 23 23 W 15 24 29.65 1004 10 16.0934 N/A
4:55 pm 16:55 Mostly Cloudy 55 12.7 17 -8.2 23 23 WSW 20 31 29.65 1004 10 16.0934 N/A
5:15 pm 17:15 Cloudy 55 12.7 17 -8.4 22 22 WSW 17 28 29.65 1004 10 16.0934 N/A
5:35 pm 17:35 Cloudy 54 12.4 17 -8.1 23 23 WSW 17 28 29.65 1004 10 16.0934 N/A
5:55 pm 17:55 Cloudy 54 12.1 18 -7.7 25 25 W 21 33 29.65 1004 10 16.0934 N/A
6:15 pm 18:15 Cloudy 49 9.3 30 -1.3 48 48 WNW 25 41 29.71 1006 10 16.0934 N/A
6:35 pm 18:35 Cloudy 45 7.4 34 0.9 64 64 NW 26 43 29.74 1007 10 16.0934 N/A
6:55 pm 18:55 Mostly Cloudy 42 5.3 34 1 74 74 NW 22 35 29.74 1007 10 16.0934 N/A
7:15 pm 19:15 Cloudy 41 4.8 33 0.6 75 75 NW 21 33 29.77 1008 10 16.0934 N/A
7:35 pm 19:35 Cloudy 40 4.6 33 0.4 74 74 NW 16 26 29.77 1008 10 16.0934 N/A
7:55 pm 19:55 Cloudy 40 4.6 33 0.4 74 74 NW 15 24 29.77 1008 10 16.0934 N/A
8:15 pm 20:15 Cloudy 40 4.5 33 0.4 75 75 NW 7 11 29.77 1008 10 16.0934 N/A
8:35 pm 20:35 Cloudy 40 4.4 33 0.4 76 76 NW 5 7 29.77 1008 10 16.0934 N/A
8:55 pm 20:55 Cloudy 39 4.1 33 0.5 78 78 NW 5 7 29.77 1008 10 16.0934 N/A
9:15 pm 21:15 Cloudy 39 4 33 0.4 78 78 N N/A 29.77 1008 10 16.0934 N/A
9:35 pm 21:35 Cloudy 39 3.8 33 0.6 80 80 N N/A 29.77 1008 10 16.0934 N/A
9:55 pm 21:55 Cloudy 39 3.8 33 0.7 80 80 N N/A 29.77 1008 10 16.0934 N/A
10:15 pm 22:15 Cloudy 39 4 33 0.6 79 79 N N/A 29.77 1008 10 16.0934 N/A
10:35 pm 22:35 Cloudy 39 4 33 0.5 78 78 N N/A 29.77 1008 10 16.0934 N/A
10:55 pm 22:55 Mostly Cloudy 38 3.6 33 0.5 80 80 N N/A 29.77 1008 10 16.0934 N/A
11:15 pm 23:15 Mostly Cloudy 38 3.5 33 0.6 82 82 N N/A 29.77 1008 10 16.0934 N/A
11:35 pm 23:35 Cloudy 38 3.1 33 0.7 84 84 W 3 6 29.77 1008 10 16.0934 N/A
11:55 pm 23:55 Cloudy 38 3.5 32 0.1 79 79 WNW 7 11 29.77 1008 10 16.0934 N/A

Powered by AerisWeather